Peoria, IL

7:29 AM CDT on October 20, 2019 (GMT -0500)
Greater Peoria Regional

Weather History for KPIA - August, 2019

Change the Weather History Date:

Wednesday, August 14, 2019

  Actual Average Record
Temperature  
Mean Temperature 74 °F 74 °F  
Max Temperature 83 °F 84 °F 99 °F (1936)
Min Temperature 65 °F 64 °F 47 °F (2004)
Degree Days  
Heating Degree Days 0 0  
Month to date heating degree days 0 0  
Since 1 June heating degree days 5 19  
Since 1 July heating degree days 0 1  
Cooling Degree Days 9 9  
Month to date cooling degree days 147 135  
Year to date cooling degree days 859 766  
Since 1 June cooling degree days 778 685  
Growing Degree Days 24 (Base 50)    
Moisture  
Dew Point 62 °F    
Average Humidity 65    
Maximum Humidity 84    
Minimum Humidity 46    
Precipitation  
Precipitation 0.00 in 0.11 in 1.93 in (1980)
Month to date precipitation 1.48 1.46  
Year to date precipitation 31.16 23.17  
Snow  
Snow 0.00 in 0.00 in 0.00 in ()
Month to date snowfall 0.0 0.0  
Since 1 June snowfall 0.0 0.0  
Since 1 July snowfall 0.0 0.0  
Snow Depth 0.00 in    
Sea Level Pressure  
Sea Level Pressure 29.96 in    
Wind  
Wind Speed 6 mph (WNW)    
Max Wind Speed 15 mph    
Max Gust Speed 22 mph    
Visibility 10 miles    
Events      
T = Trace of Precipitation, MM = Missing Value Source: NWS Daily Summary

Daily Weather History Graph

Daily Weather History Graph

Search for Another Location

Airport or City:

Astronomy

Aug. 14, 2019 Rise Set
Actual Time 6:07 AM CDT 7:58 PM CDT
Civil Twilight 5:38 AM CDT 8:27 PM CDT
Nautical Twilight 5:02 AM CDT 9:03 PM CDT
Astronomical Twilight 4:24 AM CDT 9:41 PM CDT
Moon 7:52 PM CDT (8/14) 5:04 AM CDT (8/14)
Length of Visible Light 14h 49m
Length of Day
13h 50m
Waxing Gibbous, 99% of the Moon is Illuminated
Aug 14
Waxing Gibbous
Aug 15
Full
Aug 23
Last Quarter
Aug 30
New
Sep 5
First Quarter

Hourly Weather History & Observations

Time (CDT) Temp. Heat Index Dew Point Humidity Pressure Visibility Wind Dir Wind Speed Gust Speed Precip Events Conditions
12:54 AM 72.0 °F - 66.0 °F 81% 29.93 in 10.0 mi West 4.6 mph - N/A   Clear
1:54 AM 71.1 °F - 66.0 °F 84% 29.94 in 10.0 mi Calm Calm - N/A   Clear
2:54 AM 69.1 °F - 64.9 °F 87% 29.93 in 10.0 mi West 3.5 mph - N/A   Clear
3:54 AM 69.1 °F - 64.9 °F 87% 29.93 in 10.0 mi West 3.5 mph - N/A   Clear
4:54 AM 69.1 °F - 64.0 °F 84% 29.93 in 10.0 mi WNW 4.6 mph - N/A   Clear
5:54 AM 68.0 °F - 63.0 °F 84% 29.94 in 10.0 mi WNW 5.8 mph - N/A   Clear
6:54 AM 68.0 °F - 63.0 °F 84% 29.95 in 10.0 mi WNW 5.8 mph - N/A   Clear
7:54 AM 71.1 °F - 64.0 °F 78% 29.96 in 10.0 mi WNW 4.6 mph - N/A   Clear
8:54 AM 72.0 °F - 62.1 °F 71% 29.96 in 10.0 mi NNW 5.8 mph - N/A   Clear
9:54 AM 75.0 °F - 63.0 °F 66% 29.96 in 10.0 mi NNW 8.1 mph - N/A   Clear
10:54 AM 77.0 °F - 62.1 °F 60% 29.97 in 10.0 mi WNW 9.2 mph - N/A   Clear
11:54 AM 79.0 °F - 61.0 °F 54% 29.97 in 10.0 mi West 8.1 mph 20.7 mph N/A   Partly Cloudy
12:54 PM 81.0 °F 81.9 °F 62.1 °F 52% 29.97 in 10.0 mi WNW 8.1 mph - N/A   Partly Cloudy
1:54 PM 79.0 °F - 61.0 °F 54% 29.96 in 10.0 mi WNW 8.1 mph 17.3 mph N/A   Scattered Clouds
2:54 PM 81.0 °F 81.6 °F 60.1 °F 49% 29.95 in 10.0 mi WNW 11.5 mph 20.7 mph N/A   Partly Cloudy
3:54 PM 82.0 °F 82.1 °F 59.0 °F 45% 29.94 in 10.0 mi WNW 11.5 mph 21.9 mph N/A   Partly Cloudy
4:54 PM 81.0 °F 81.7 °F 61.0 °F 50% 29.94 in 10.0 mi West 12.7 mph - N/A   Scattered Clouds
5:54 PM 79.0 °F - 60.1 °F 52% 29.94 in 10.0 mi WNW 9.2 mph - N/A   Mostly Cloudy
6:54 PM 78.1 °F - 60.1 °F 54% 29.94 in 10.0 mi WNW 10.4 mph 18.4 mph N/A   Partly Cloudy
7:54 PM 73.0 °F - 60.1 °F 64% 29.96 in 10.0 mi NNW 4.6 mph - N/A   Partly Cloudy
8:54 PM 71.1 °F - 61.0 °F 70% 29.98 in 10.0 mi NW 4.6 mph - N/A   Clear
9:54 PM 69.1 °F - 61.0 °F 75% 29.99 in 10.0 mi NNW 3.5 mph - N/A   Clear
10:54 PM 66.9 °F - 61.0 °F 81% 30.01 in 10.0 mi WNW 4.6 mph - N/A   Partly Cloudy
11:54 PM 66.9 °F - 61.0 °F 81% 30.00 in 10.0 mi Calm Calm - N/A   Mostly Cloudy